Regional Weather Roundup
Issued by NWS Upton, NY

Current Version | Previous Version | Text Only | Print | Product List | Glossary Off
Versions: 1 2 3 4 5 6 7 8 9 10 11 12 13 14 15 16 17 18 19 20 21 22 23 24 25 26 27
000 ASUS41 KOKX 200105 RWROKX Regional Weather Roundup National Weather Service New York NY 900 PM EDT THU APR 19 2018 Note: "FAIR" indicates few or no clouds below 12,000 feet with no significant weather and/or obstructions to visibility. NYZ071-072-176-178-NJZ106-104-200200- New York City Metro Area CITY SKY/WX TMP DP RH WIND PRES REMARKS Central Park FAIR 42 22 44 NW10G17 29.97R Bronx Bot Gard N/A 41 23 48 NW16 29.96 Bronx Lehman C N/A 41 23 48 NW15 N/A LaGuardia Arpt FAIR 43 24 47 NW25G37 29.94R Queens College N/A 43 23 45 NW20G32 N/A Kennedy Intl FAIR 42 23 46 NW23G30 29.95R Breezy Point N/A 41 N/A N/A NW17G25 N/A Brooklyn Coll N/A 43 23 45 NW22G40 N/A Staten Island N/A 41 23 48 NW14 N/A Newark/Liberty FAIR 42 22 44 W20G28 29.97R Teterboro FAIR 42 23 46 NW18G30 29.95R $$ NYZ177-179-078>081-200200- Long Island New York CITY SKY/WX TMP DP RH WIND PRES REMARKS Jones Beach N/A 43 N/A N/A NW21G28 N/A Wantagh N/A 43 25 49 NW15G28 N/A Hempstead N/A 43 27 52 NW5 29.96 Matinecock Pt N/A 43 N/A N/A NW26G32 N/A Farmingdale MOCLDY 42 24 49 NW15G24 29.92R MacArthur/ISP MOCLDY 42 29 59 NW16G22 29.89R Stony Brook N/A 41 28 60 NW13 N/A Shirley CLOUDY 40 36 86 NW10 29.90R WCI 33 Mt Sinai Harb N/A 41 N/A N/A NW9G18 N/A Westhampton CLOUDY 39 34 82 NW10 29.90R WCI 32 East Hampton DRIZZLE 40 33 78 NW9 29.86R WCI 33 Southold N/A 41 34 75 NW9 N/A Montauk N/A 44 35 70 W9G20 29.85R $$ NYZ052-065-067-200200- Hudson Valley CITY SKY/WX TMP DP RH WIND PRES REMARKS White Plains FAIR 39 23 52 NW15 29.91R WCI 31 Larchmont Harb N/A 41 N/A N/A W14G22 N/A Croton On Huds N/A 41 N/A N/A W22G29 N/A Somers N/A 37 25 60 NW10 N/A WCI 30 Brewster N/A 37 23 56 NW12 N/A WCI 30 Newburgh PTCLDY 37 27 65 NW12G21 29.94R WCI 30 Montgomery MOCLDY 38 25 59 NW14 29.93R WCI 30 Otisville N/A 34 28 80 NW9 N/A WCI 26 Warwick N/A 37 27 65 NW13 N/A WCI 29 Suffern N/A 37 25 60 NW13G24 N/A WCI 29 Poughkeepsie CLOUDY 40 23 50 NW8 29.92R WCI 34 Albany CLOUDY 37 26 64 W14 29.91R WCI 28 $$ NJZ001-105-106-008-010-013-015-019>022-104-200200- New Jersey CITY SKY/WX TMP DP RH WIND PRES REMARKS Newark/Liberty FAIR 42 22 44 W20G28 29.97R Teterboro FAIR 42 23 46 NW18G30 29.95R Caldwell FAIR 40 22 48 NW12G22 29.97R WCI 33 Somerville FAIR 40 27 59 NW15G26 29.98R WCI 32 Linden FAIR 41 23 49 NW17G25 29.98R Perth Amboy N/A 43 N/A N/A NW20G25 N/A Sussex FAIR 37 25 61 VRB7 29.97R WCI 32 Andover N/A 37 25 61 N10G18 29.98R WCI 30 Trenton FAIR 41 29 62 NW9 30.00R Millville CLOUDY 44 26 49 NW20G32 30.03R Atlantic City CLOUDY 46 31 55 NW15 30.00R Wrightstown FAIR 41 31 66 NW12 29.98R Toms River FAIR 41 31 67 NW12G21 30.00R Belmar FAIR 42 25 50 NW14G21 29.98R $$ PAZ047>061-062-071-200200- Eastern Pennsylvania CITY SKY/WX TMP DP RH WIND PRES REMARKS Philadelphia MOCLDY 43 21 41 NW23G32 30.05R Allentown MOCLDY 41 23 48 W14 30.01R Scranton FLURRIES 34 29 82 NW13G25 30.01 WCI 25 $$ CTZ002-004>006-009-010-012-RIZ004-006-007-MAZ004-011-015-200200- Southern New England In CT CITY SKY/WX TMP DP RH WIND PRES REMARKS Bradley Intl CLOUDY 39 27 62 NW10 29.87R WCI 32 Hartford CLOUDY 41 26 55 NW10G20 29.88R Danbury FAIR 38 21 50 NW12G18 29.91R WCI 30 Wtrbury/Oxford FAIR 37 25 61 NW10G18 29.88R WCI 30 Norwalk Harbor N/A 41 N/A N/A NW20 N/A Bridgeport FAIR 41 28 60 NW12G24 29.89R Meriden FAIR 40 25 55 NW14G24 29.88R WCI 32 New Haven FAIR 42 27 55 NW10G17 29.88R Chester MOCLDY 41 25 52 NW17G24 29.85R Groton CLOUDY 42 31 64 NW9 29.84R Willimantic CLOUDY 41 29 62 NW13G23 29.85R In RI CITY SKY/WX TMP DP RH WIND PRES REMARKS Providence LGT RAIN 42 35 76 NW15G23 29.81R Block Island CLOUDY 41 36 82 W9 29.83R Westerly CLOUDY 43 36 76 VRB5 29.83R In MA CITY SKY/WX TMP DP RH WIND PRES REMARKS Boston MOCLDY 43 35 73 W9 29.78R Worcester CLOUDY 34 31 88 W16 29.79R WCI 24 Westfield CLOUDY 39 29 67 NW15G21 29.85R WCI 31 Provincetown LGT RAIN 41 39 93 W8 29.77R Nantucket CLOUDY 41 40 96 W9 29.78R $$ ANZ330-335-338-340-345-350-353-355-200200- Coastal Marine Observations STATION/POSITION TIME SKY/WX TEMP WIND PRES VSBY WAVE AIR SEA DIR/SP/G HT/PER (UTC) (F) (DEG/KT/KT) (MB) (MI) (FT/S) NY Harb Entrance 0040 44 45 310/ 23/ 31 1013.4 20 S Fire Island 2350 45 42 310/ 17/ 21 1011.3 3/ 5 23 SSW Montauk P 2350 42 42 270/ 17/ 19 1010.0 3/ 8 15 E Barnegat Li 0030 44 N/A 4/ 8 Hudson Canyon 2350 44 45 310/ 19/ 21 1011.0 4/ 7 Kings Point 0030 43 45 360/ 23/ 26 1014.2 Execution Rocks NOT AVBL Western LI Sound NOT AVBL Central LI Sound 0045 42 310/ 14/ 19 N/A 2 Robbins Reef 0030 43 320/ 20/ 28 1013.9 $$ >>>>>>>>>>>>>>>>>>>>>>>>>>>> KEY <<<<<<<<<<<<<<<<<<<<<<<<<<< > < > SKY/WX - Sky Condition/Present Weather < > TMP - Temperature in Fahrenheit < > DP - Dew Point in Fahrenheit < > RH - Relative Humidity in Percent < > WIND - Direction (from) and Speed in MPH < > PRES - Mean Sea Level Pressure (inches of Hg) < > WCI - Wind Chill Index < > VSB - Visibility in Miles < > HX - Heat Index < > TC - Temperature in Celsius < > VRB - Varibale Wind Direction < > < >>>>>>>>>>>>>>>>>>>>>>>>>>>> KEY <<<<<<<<<<<<<<<<<<<<<<<<<<<

USA.gov is the U.S. government's official web portal to all federal, state and local government web resources and services.